TOM11B EGKK-LEPA

Flight info

Callsign TOM11B
Flight time N/A
Altitude 23000
Route BOGNA L612 BENBO Y47 DRAKE/N0450F330 L151 SITET UN859 SOPIL DCT BALAN DCT EVPOK DCT NARAK DCT GAI DCT LOMRA DCT ROCAN DCT IBRAP DCT LUKEV N13 LORES
Aircraft B38M/M-SDE1FGHILORVWXY/HB1

Departure

Time 2026-04-18 09:42
Airport London Gatwick Airport (EGKK)

Arrival

Time N/A
Airport Palma de Mallorca Airport (LEPA)
Time Latitude Longitude Altitude Speed Heading
2026-04-18 09:20 51.15841 -0.17633 205 ft 0 kts 347°
2026-04-18 09:35 51.15820 -0.17626 209 ft 4 kts 351°
2026-04-18 09:35 51.15793 -0.17621 205 ft 4 kts 357°
2026-04-18 09:36 51.15766 -0.17622 209 ft 4 kts 11°
2026-04-18 09:36 51.15745 -0.17638 214 ft 4 kts 57°
2026-04-18 09:36 51.15741 -0.17649 211 ft 1 kts 77°
2026-04-18 09:39 51.15743 -0.17640 206 ft 3 kts 77°
2026-04-18 09:39 51.15753 -0.17555 210 ft 13 kts 91°
2026-04-18 09:39 51.15653 -0.17475 206 ft 21 kts 168°
2026-04-18 09:40 51.15507 -0.17425 209 ft 23 kts 168°
2026-04-18 09:40 51.15338 -0.17366 208 ft 25 kts 168°
2026-04-18 09:40 51.15199 -0.17264 208 ft 21 kts 142°
2026-04-18 09:40 51.15193 -0.17099 209 ft 16 kts 77°
2026-04-18 09:41 51.15217 -0.16924 215 ft 13 kts 78°
2026-04-18 09:41 51.15193 -0.16796 206 ft 14 kts 153°
2026-04-18 09:41 51.15116 -0.16857 211 ft 14 kts 247°
2026-04-18 09:41 51.15088 -0.17020 214 ft 16 kts 258°
2026-04-18 09:42 51.15053 -0.17282 216 ft 54 kts 257°
2026-04-18 09:42 51.14912 -0.18306 212 ft 134 kts 257°
2026-04-18 09:42 51.14666 -0.20094 320 ft 188 kts 256°
2026-04-18 09:42 51.14323 -0.22210 1022 ft 209 kts 257°
2026-04-18 09:43 51.13938 -0.24518 1857 ft 226 kts 258°
2026-04-18 09:43 51.13549 -0.26928 2898 ft 218 kts 261°
2026-04-18 09:43 51.13284 -0.29271 3914 ft 214 kts 261°
2026-04-18 09:43 51.12995 -0.31623 4608 ft 216 kts 259°
2026-04-18 09:44 51.12676 -0.33856 5819 ft 193 kts 257°
2026-04-18 09:44 51.12368 -0.36024 6076 ft 210 kts 259°
2026-04-18 09:44 51.12081 -0.38297 5904 ft 213 kts 258°
2026-04-18 09:44 51.11409 -0.40430 5304 ft 225 kts 229°
2026-04-18 09:45 51.10032 -0.41751 4898 ft 239 kts 196°